Time,TemperatureF,DewpointF,PressureIn,WindDirection,WindDirectionDegrees,WindSpeedMPH,WindSpeedGustMPH,Humidity,HourlyPrecipIn,Conditions,Clouds,dailyrainin,SoftwareType,DateUTC
2013-05-18 00:02:00,69.0,61.0,29.24,South,169,8.0,11.0,75,4.19,,,-99.99,,2013-05-18 05:02:00,
2013-05-18 00:12:00,69.0,61.0,29.24,South,169,8.0,11.0,75,4.19,,,-99.99,,2013-05-18 05:12:00,
2013-05-18 00:22:00,69.0,61.0,29.24,South,174,9.0,13.0,76,4.19,,,-99.99,,2013-05-18 05:22:00,
2013-05-18 00:31:00,69.0,61.0,29.24,SSE,160,9.0,13.0,77,4.19,,,-99.99,,2013-05-18 05:31:00,
2013-05-18 00:42:00,69.0,61.0,29.24,SSE,160,9.0,13.0,77,4.19,,,-99.99,,2013-05-18 05:42:00,
2013-05-18 00:52:00,68.0,61.0,29.24,SSE,159,4.0,7.0,77,4.19,,,-99.99,,2013-05-18 05:52:00,
2013-05-18 01:02:00,67.0,61.0,29.25,SSE,162,9.0,11.0,80,4.19,,,-99.99,,2013-05-18 06:02:00,
2013-05-18 01:11:00,68.0,62.0,29.24,SSE,158,10.0,13.0,80,4.19,,,-99.99,,2013-05-18 06:11:00,
2013-05-18 01:22:00,68.0,62.0,29.24,SSE,158,10.0,13.0,80,4.19,,,-99.99,,2013-05-18 06:22:00,
2013-05-18 01:31:00,68.0,62.0,29.19,SSE,155,10.0,15.0,81,4.19,,,-99.99,,2013-05-18 06:31:00,
2013-05-18 01:42:00,68.0,62.0,29.19,SSE,155,10.0,15.0,81,4.19,,,-99.99,,2013-05-18 06:42:00,
2013-05-18 01:52:00,67.0,61.0,29.24,SE,138,8.0,10.0,81,4.19,,,-99.99,,2013-05-18 06:52:00,
2013-05-18 02:01:00,67.0,61.0,29.24,South,176,6.0,8.0,82,4.19,,,-99.99,,2013-05-18 07:01:00,
2013-05-18 02:11:00,66.0,61.0,29.24,South,173,5.0,8.0,83,4.19,,,-99.99,,2013-05-18 07:11:00,
2013-05-18 02:21:00,66.0,61.0,29.24,South,173,5.0,8.0,83,4.19,,,-99.99,,2013-05-18 07:21:00,
2013-05-18 02:31:00,66.0,61.0,29.24,South,176,6.0,8.0,84,4.19,,,-99.99,,2013-05-18 07:31:00,
2013-05-18 02:42:00,65.0,61.0,29.24,SSE,150,6.0,9.0,86,4.19,,,-99.99,,2013-05-18 07:42:00,
2013-05-18 02:52:00,65.0,61.0,29.24,SSE,150,6.0,9.0,86,4.19,,,-99.99,,2013-05-18 07:52:00,
2013-05-18 03:01:00,65.0,61.0,29.23,SSE,165,7.0,10.0,86,4.19,,,-99.99,,2013-05-18 08:01:00,
2013-05-18 03:11:00,65.0,61.0,29.23,SSE,165,7.0,10.0,86,4.19,,,-99.99,,2013-05-18 08:11:00,
2013-05-18 03:21:00,65.0,61.0,29.23,SE,146,7.0,10.0,87,4.19,,,-99.99,,2013-05-18 08:21:00,
2013-05-18 03:32:00,65.0,61.0,29.22,South,172,8.0,11.0,88,4.19,,,-99.99,,2013-05-18 08:32:00,
2013-05-18 03:42:00,65.0,61.0,29.22,South,172,8.0,11.0,88,4.19,,,-99.99,,2013-05-18 08:42:00,
2013-05-18 03:52:00,65.0,61.0,29.23,SSE,163,7.0,10.0,88,4.19,,,-99.99,,2013-05-18 08:52:00,
2013-05-18 04:02:00,64.0,61.0,29.23,SSE,166,5.0,8.0,89,4.19,,,-99.99,,2013-05-18 09:02:00,
2013-05-18 04:11:00,64.0,61.0,29.23,SSE,166,5.0,8.0,89,4.19,,,-99.99,,2013-05-18 09:11:00,
2013-05-18 04:22:00,64.0,61.0,29.23,SSW,193,7.0,9.0,90,4.19,,,-99.99,,2013-05-18 09:22:00,
2013-05-18 04:32:00,63.0,60.0,29.23,SSE,155,3.0,6.0,90,4.19,,,-99.99,,2013-05-18 09:32:00,
2013-05-18 04:43:00,63.0,60.0,29.23,SSE,155,3.0,6.0,90,4.19,,,-99.99,,2013-05-18 09:43:00,
2013-05-18 04:53:00,63.0,60.0,29.23,North,0,0.0,0.0,90,4.19,,,-99.99,,2013-05-18 09:53:00,
2013-05-18 05:02:00,62.0,59.0,29.24,North,0,0.0,0.0,91,4.19,,,-99.99,,2013-05-18 10:02:00,
2013-05-18 05:12:00,62.0,59.0,29.24,North,0,0.0,0.0,91,4.19,,,-99.99,,2013-05-18 10:12:00,
2013-05-18 05:22:00,62.0,59.0,29.24,North,0,0.0,0.0,91,4.19,,,-99.99,,2013-05-18 10:22:00,
2013-05-18 05:33:00,62.0,59.0,29.23,North,0,0.0,0.0,91,4.19,,,-99.99,,2013-05-18 10:33:00,
2013-05-18 05:42:00,62.0,59.0,29.23,North,0,0.0,0.0,91,4.19,,,-99.99,,2013-05-18 10:42:00,
2013-05-18 05:52:00,62.0,59.0,29.24,SE,138,2.0,4.0,91,4.19,,,-99.99,,2013-05-18 10:52:00,
2013-05-18 06:02:00,62.0,59.0,29.24,South,169,5.0,6.0,91,4.19,,,-99.99,,2013-05-18 11:02:00,
2013-05-18 06:12:00,62.0,60.0,29.23,North,0,0.0,0.0,92,4.19,,,-99.99,,2013-05-18 11:12:00,
2013-05-18 06:22:00,62.0,60.0,29.23,North,0,0.0,0.0,92,4.19,,,-99.99,,2013-05-18 11:22:00,
2013-05-18 06:33:00,62.0,60.0,29.23,ESE,114,5.0,8.0,92,4.19,,,-99.99,,2013-05-18 11:33:00,
2013-05-18 06:42:00,62.0,60.0,29.23,ESE,114,5.0,8.0,92,4.19,,,-99.99,,2013-05-18 11:42:00,
2013-05-18 06:52:00,61.0,59.0,29.23,NNE,14,3.0,5.0,92,4.19,,,-99.99,,2013-05-18 11:52:00,
2013-05-18 07:01:00,62.0,60.0,29.22,SSE,160,5.0,7.0,92,4.19,,,-99.99,,2013-05-18 12:01:00,
2013-05-18 07:12:00,62.0,60.0,29.23,SE,139,4.0,6.0,92,4.19,,,-99.99,,2013-05-18 12:12:00,
2013-05-18 07:23:00,62.0,60.0,29.23,SE,139,4.0,6.0,92,4.19,,,-99.99,,2013-05-18 12:23:00,
2013-05-18 07:33:00,63.0,61.0,29.23,SSE,156,7.0,10.0,93,4.19,,,-99.99,,2013-05-18 12:33:00,
2013-05-18 07:42:00,63.0,61.0,29.23,SSE,156,7.0,10.0,93,4.19,,,-99.99,,2013-05-18 12:42:00,
2013-05-18 07:52:00,64.0,62.0,29.23,SE,135,8.0,10.0,92,4.19,,,-99.99,,2013-05-18 12:52:00,
2013-05-18 08:01:00,65.0,63.0,29.23,SSE,165,9.0,12.0,92,4.19,,,-99.99,,2013-05-18 13:01:00,
2013-05-18 08:11:00,65.0,63.0,29.23,SSE,165,9.0,12.0,92,4.19,,,-99.99,,2013-05-18 13:11:00,
2013-05-18 08:21:00,66.0,63.0,29.23,SSE,163,10.0,13.0,91,4.19,,,-99.99,,2013-05-18 13:21:00,
2013-05-18 08:33:00,66.0,63.0,29.23,SSE,158,10.0,14.0,90,4.19,,,-99.99,,2013-05-18 13:33:00,
2013-05-18 08:43:00,66.0,63.0,29.23,SSE,158,10.0,14.0,90,4.19,,,-99.99,,2013-05-18 13:43:00,
2013-05-18 08:52:00,68.0,64.0,29.19,South,174,9.0,12.0,88,4.19,,,-99.99,,2013-05-18 13:52:00,
2013-05-18 09:03:00,69.0,64.0,29.23,South,169,9.0,12.0,85,4.19,,,-99.99,,2013-05-18 14:03:00,
2013-05-18 09:12:00,70.0,65.0,29.24,SE,146,9.0,11.0,83,4.19,,,-99.99,,2013-05-18 14:12:00,
2013-05-18 09:22:00,70.0,65.0,29.24,SE,146,9.0,11.0,83,4.19,,,-99.99,,2013-05-18 14:22:00,
2013-05-18 09:32:00,71.0,65.0,29.23,SSE,159,9.0,12.0,82,4.19,,,-99.99,,2013-05-18 14:32:00,
2013-05-18 09:42:00,71.0,65.0,29.23,SSE,159,9.0,12.0,82,4.19,,,-99.99,,2013-05-18 14:42:00,
2013-05-18 09:54:00,73.0,66.0,29.23,East,100,9.0,13.0,79,4.19,,,-99.99,,2013-05-18 14:54:00,
2013-05-18 10:03:00,74.0,66.0,29.24,SSE,153,9.0,12.0,77,4.19,,,-99.99,,2013-05-18 15:03:00,
2013-05-18 10:13:00,75.0,67.0,29.25,ESE,108,7.0,10.0,76,4.19,,,-99.99,,2013-05-18 15:13:00,
2013-05-18 10:23:00,75.0,67.0,29.25,ESE,108,7.0,10.0,76,4.19,,,-99.99,,2013-05-18 15:23:00,
2013-05-18 10:33:00,75.0,67.0,29.26,SSE,165,6.0,11.0,76,4.19,,,-99.99,,2013-05-18 15:33:00,
2013-05-18 10:43:00,75.0,67.0,29.26,SSE,165,6.0,11.0,76,4.19,,,-99.99,,2013-05-18 15:43:00,
2013-05-18 10:53:00,75.0,67.0,29.25,SSE,167,9.0,11.0,75,4.19,,,-99.99,,2013-05-18 15:53:00,
2013-05-18 11:02:00,76.0,67.0,29.25,SSE,165,8.0,11.0,74,4.19,,,-99.99,,2013-05-18 16:02:00,
2013-05-18 11:13:00,76.0,67.0,29.25,SSE,165,8.0,11.0,74,4.19,,,-99.99,,2013-05-18 16:13:00,
2013-05-18 11:22:00,76.0,67.0,29.25,SSE,153,8.0,12.0,73,4.19,,,-99.99,,2013-05-18 16:22:00,
2013-05-18 11:33:00,79.0,68.0,29.24,SSE,156,10.0,14.0,70,4.19,,,-99.99,,2013-05-18 16:33:00,
2013-05-18 11:42:00,79.0,68.0,29.24,SSE,156,10.0,14.0,70,4.19,,,-99.99,,2013-05-18 16:42:00,
2013-05-18 11:52:00,80.0,68.0,29.23,SE,127,11.0,16.0,68,4.19,,,-99.99,,2013-05-18 16:52:00,
2013-05-18 12:02:00,80.0,68.0,29.23,South,181,12.0,16.0,67,4.19,,,-99.99,,2013-05-18 17:02:00,
2013-05-18 12:12:00,80.0,68.0,29.23,South,181,12.0,16.0,67,4.19,,,-99.99,,2013-05-18 17:12:00,
2013-05-18 12:22:00,81.0,68.0,29.21,ESE,113,15.0,19.0,64,4.19,,,-99.99,,2013-05-18 17:22:00,
2013-05-18 12:32:00,81.0,68.0,29.20,ESE,122,12.0,19.0,64,4.19,,,-99.99,,2013-05-18 17:32:00,
2013-05-18 12:42:00,81.0,68.0,29.20,ESE,122,12.0,19.0,64,4.19,,,-99.99,,2013-05-18 17:42:00,
2013-05-18 12:52:00,82.0,68.0,29.20,SE,136,12.0,18.0,63,4.19,,,-99.99,,2013-05-18 17:52:00,
2013-05-18 13:01:00,82.0,68.0,29.21,SE,146,14.0,20.0,62,4.19,,,-99.99,,2013-05-18 18:01:00,
2013-05-18 13:12:00,82.0,68.0,29.21,SE,146,14.0,20.0,62,4.19,,,-99.99,,2013-05-18 18:12:00,
2013-05-18 13:21:00,82.0,68.0,29.20,SSE,150,12.0,16.0,62,4.19,,,-99.99,,2013-05-18 18:21:00,
2013-05-18 13:32:00,83.0,68.0,29.20,South,173,13.0,18.0,60,4.19,,,-99.99,,2013-05-18 18:32:00,
2013-05-18 13:42:00,82.0,67.0,29.16,SE,131,11.0,18.0,60,4.19,,,-99.99,,2013-05-18 18:42:00,
2013-05-18 13:52:00,82.0,67.0,29.16,SE,131,11.0,18.0,60,4.19,,,-99.99,,2013-05-18 18:52:00,
2013-05-18 14:02:00,82.0,66.0,29.19,SE,145,12.0,17.0,59,4.19,,,-99.99,,2013-05-18 19:02:00,
2013-05-18 14:11:00,82.0,66.0,29.19,SE,145,12.0,17.0,59,4.19,,,-99.99,,2013-05-18 19:11:00,
2013-05-18 14:22:00,82.0,66.0,29.18,SE,142,13.0,23.0,58,4.19,,,-99.99,,2013-05-18 19:22:00,
2013-05-18 14:32:00,82.0,66.0,29.18,South,174,16.0,21.0,59,4.19,,,-99.99,,2013-05-18 19:32:00,
2013-05-18 14:42:00,82.0,66.0,29.18,South,184,12.0,18.0,59,4.19,,,-99.99,,2013-05-18 19:42:00,
2013-05-18 14:52:00,82.0,66.0,29.18,South,184,12.0,18.0,59,4.19,,,-99.99,,2013-05-18 19:52:00,
2013-05-18 15:01:00,81.0,65.0,29.17,SSE,155,14.0,19.0,59,4.19,,,-99.99,,2013-05-18 20:01:00,
2013-05-18 15:11:00,81.0,65.0,29.17,SSE,155,14.0,19.0,59,4.19,,,-99.99,,2013-05-18 20:11:00,
2013-05-18 15:22:00,81.0,66.0,29.17,SSE,163,11.0,17.0,60,4.19,,,-99.99,,2013-05-18 20:22:00,
2013-05-18 15:32:00,81.0,66.0,29.17,SSE,159,15.0,21.0,60,4.19,,,-99.99,,2013-05-18 20:32:00,
2013-05-18 15:42:00,81.0,66.0,29.17,SSE,159,15.0,21.0,60,4.19,,,-99.99,,2013-05-18 20:42:00,
2013-05-18 15:52:00,81.0,66.0,29.16,SSE,159,13.0,20.0,61,4.19,,,-99.99,,2013-05-18 20:52:00,
2013-05-18 16:01:00,82.0,67.0,29.13,South,176,15.0,22.0,61,4.19,,,-99.99,,2013-05-18 21:01:00,
2013-05-18 16:12:00,82.0,67.0,29.13,South,176,15.0,22.0,61,4.19,,,-99.99,,2013-05-18 21:12:00,
2013-05-18 16:21:00,82.0,67.0,29.15,SSE,160,13.0,19.0,61,4.19,,,-99.99,,2013-05-18 21:21:00,
2013-05-18 16:32:00,83.0,67.0,29.16,South,174,13.0,19.0,59,4.19,,,-99.99,,2013-05-18 21:32:00,
2013-05-18 16:43:00,83.0,67.0,29.16,South,174,13.0,19.0,59,4.19,,,-99.99,,2013-05-18 21:43:00,
2013-05-18 16:53:00,81.0,66.0,29.17,South,173,13.0,20.0,61,4.19,,,-99.99,,2013-05-18 21:53:00,
2013-05-18 17:03:00,82.0,67.0,29.16,South,169,14.0,19.0,60,4.19,,,-99.99,,2013-05-18 22:03:00,
2013-05-18 17:12:00,81.0,67.0,29.15,SSE,155,14.0,19.0,62,4.19,,,-99.99,,2013-05-18 22:12:00,
2013-05-18 17:23:00,81.0,67.0,29.15,SSE,155,14.0,19.0,62,4.19,,,-99.99,,2013-05-18 22:23:00,
2013-05-18 17:33:00,80.0,66.0,29.14,SSE,150,14.0,21.0,63,4.19,,,-99.99,,2013-05-18 22:33:00,
2013-05-18 17:42:00,80.0,66.0,29.14,South,176,11.0,18.0,63,4.19,,,-99.99,,2013-05-18 22:42:00,
2013-05-18 17:52:00,80.0,66.0,29.14,South,176,11.0,18.0,63,4.19,,,-99.99,,2013-05-18 22:52:00,
2013-05-18 18:01:00,80.0,67.0,29.13,South,180,11.0,17.0,64,4.19,,,-99.99,,2013-05-18 23:01:00,
2013-05-18 18:11:00,80.0,67.0,29.12,SE,141,11.0,15.0,64,4.19,,,-99.99,,2013-05-18 23:11:00,
2013-05-18 18:22:00,80.0,67.0,29.12,SE,141,11.0,15.0,64,4.19,,,-99.99,,2013-05-18 23:22:00,
2013-05-18 18:32:00,82.0,68.0,29.11,SE,142,12.0,18.0,62,4.19,,,-99.99,,2013-05-18 23:32:00,
2013-05-18 18:41:00,82.0,68.0,29.11,SE,142,12.0,18.0,62,4.19,,,-99.99,,2013-05-18 23:41:00,
2013-05-18 18:52:00,82.0,68.0,29.11,SSE,148,10.0,18.0,62,4.19,,,-99.99,,2013-05-18 23:52:00,
2013-05-18 19:01:00,81.0,67.0,29.10,South,179,13.0,20.0,63,4.19,,,-99.99,,2013-05-19 00:01:00,
2013-05-18 19:11:00,81.0,67.0,29.10,South,179,13.0,20.0,63,4.19,,,-99.99,,2013-05-19 00:11:00,
2013-05-18 19:21:00,82.0,68.0,29.10,SSE,148,13.0,20.0,63,4.19,,,-99.99,,2013-05-19 00:21:00,
2013-05-18 19:31:00,82.0,69.0,29.10,South,174,15.0,21.0,64,4.19,,,-99.99,,2013-05-19 00:31:00,
2013-05-18 19:41:00,82.0,69.0,29.10,South,174,15.0,21.0,64,4.19,,,-99.99,,2013-05-19 00:41:00,
2013-05-18 19:51:00,81.0,68.0,29.10,SSE,162,11.0,17.0,65,4.19,,,-99.99,,2013-05-19 00:51:00,
2013-05-18 20:01:00,80.0,68.0,29.10,SSE,149,13.0,18.0,66,4.19,,,-99.99,,2013-05-19 01:01:00,
2013-05-18 20:11:00,80.0,68.0,29.10,SSE,149,13.0,18.0,66,4.19,,,-99.99,,2013-05-19 01:11:00,
2013-05-18 20:21:00,80.0,68.0,29.10,SSE,152,10.0,13.0,68,4.19,,,-99.99,,2013-05-19 01:21:00,
2013-05-18 20:32:00,79.0,68.0,29.09,SE,143,11.0,16.0,68,4.19,,,-99.99,,2013-05-19 01:32:00,
2013-05-18 20:42:00,79.0,68.0,29.09,SE,143,11.0,16.0,68,4.19,,,-99.99,,2013-05-19 01:42:00,
2013-05-18 20:52:00,79.0,68.0,29.10,ESE,115,9.0,14.0,69,4.19,,,-99.99,,2013-05-19 01:52:00,
2013-05-18 21:01:00,78.0,67.0,29.08,SE,132,11.0,16.0,70,4.19,,,-99.99,,2013-05-19 02:01:00,
2013-05-18 21:11:00,78.0,68.0,29.09,SE,138,8.0,11.0,71,4.19,,,-99.99,,2013-05-19 02:11:00,
2013-05-18 21:21:00,78.0,68.0,29.09,SE,138,8.0,11.0,71,4.19,,,-99.99,,2013-05-19 02:21:00,
2013-05-18 21:32:00,77.0,67.0,29.10,SE,145,7.0,11.0,72,4.19,,,-99.99,,2013-05-19 02:32:00,
2013-05-18 21:42:00,77.0,67.0,29.10,SE,145,7.0,11.0,72,4.19,,,-99.99,,2013-05-19 02:42:00,
2013-05-18 21:52:00,77.0,67.0,29.10,South,177,9.0,12.0,72,4.19,,,-99.99,,2013-05-19 02:52:00,
2013-05-18 22:01:00,77.0,67.0,29.10,SSE,150,8.0,11.0,72,4.19,,,-99.99,,2013-05-19 03:01:00,
2013-05-18 22:11:00,77.0,68.0,29.09,SSE,165,8.0,10.0,74,4.19,,,-99.99,,2013-05-19 03:11:00,
2013-05-18 22:21:00,77.0,68.0,29.09,SSE,165,8.0,10.0,74,4.19,,,-99.99,,2013-05-19 03:21:00,
2013-05-18 22:33:00,76.0,67.0,29.09,South,176,9.0,12.0,75,4.19,,,-99.99,,2013-05-19 03:33:00,
2013-05-18 22:43:00,76.0,67.0,29.09,South,176,9.0,12.0,75,4.19,,,-99.99,,2013-05-19 03:43:00,
2013-05-18 22:53:00,77.0,68.0,29.09,SSE,165,9.0,15.0,75,4.19,,,-99.99,,2013-05-19 03:53:00,
2013-05-18 23:02:00,77.0,69.0,29.11,SW,229,5.0,9.0,76,4.19,,,-99.99,,2013-05-19 04:02:00,
2013-05-18 23:12:00,77.0,69.0,29.11,SW,229,5.0,9.0,76,4.19,,,-99.99,,2013-05-19 04:12:00,
2013-05-18 23:23:00,70.0,61.0,29.12,WSW,255,22.0,25.0,74,4.19,,,-99.99,,2013-05-19 04:23:00,
2013-05-18 23:33:00,66.0,63.0,29.11,WNW,293,20.0,24.0,90,4.26,,,-99.99,,2013-05-19 04:33:00,
2013-05-18 23:53:00,64.0,63.0,29.12,WNW,284,15.0,18.0,96,4.48,,,-99.99,,2013-05-19 04:53:00,